• Join FlightAware (Why Join?)
  • Login
  • US Flag 
12:12AM EDT


 

Airport Tracker/Info


-or-


 

Live Flight TrackerFlight Track Log ✈ UAL4380 ✈ 15-Apr-2013 ✈ KMFE - KIAH

Flight Track Log - Related Links

Times and Time Zones

All times are in EDT time to prevent confusion due to time zone crossing. See the UAL4380 flight status page for this flight to view local times or setup timezone preferences in your user account.

Time Position Orientation Groundspeed Altitude Reporting Facility
EDT Latitude Longitude Course Direction KTS MPH feet Rate Location/Type
06:30AM 26.1611 -98.2239 24° Northeast 114 131 1,000  Level Houston Center
06:31AM 26.1994 -98.1886 40° Northeast 216 249 2,800 1,740 Climbing Houston Center
06:32AM 26.2531 -98.1664 20° North 258 297 4,000 1,740 Climbing Houston Center
06:32AM 26.2700 -98.1586 22° Northeast 264 304 4,600 1,980 Climbing Houston Center
06:33AM 26.3724 -98.1344 20° North  Level FlightAware Approximate
06:33AM 26.3275 -98.1347 20° North 279 321 6,000  Level Houston Center
06:33AM 26.3447 -98.1278 20° North 281 323 6,500 2,340 Climbing Houston Center
06:34AM 26.4420 -98.1040 24° Northeast  Level FlightAware Approximate
06:34AM 26.4053 -98.1011 22° Northeast 295 339 8,400  Level Houston Center
06:35AM 26.5102 -98.0699 24° Northeast  Level FlightAware Approximate
06:35AM 26.4800 -98.0689 21° North 289 333 10,200  Level Houston Center
06:36AM 26.5597 -98.0347 21° North 301 346 11,300 840 Climbing Houston Center
06:37AM 26.6469 -97.9944 22° Northeast 330 380 11,900 840 Climbing Houston Center
06:38AM 26.7350 -97.9381 30° Northeast 358 412 13,100 1,140 Climbing Houston Center
06:39AM 26.8250 -97.8825 29° Northeast 368 423 14,300 1,200 Climbing Houston Center
06:40AM 26.9161 -97.8275 28° Northeast 370 426 15,500 1,200 Climbing Houston Center
06:41AM 27.0081 -97.7697 29° Northeast 379 436 16,800 1,320 Climbing Houston Center
06:42AM 27.0972 -97.7164 28° Northeast 375 432 18,200 1,260 Climbing Houston Center
06:43AM 27.1900 -97.6589 29° Northeast 375 432 19,400 1,200 Climbing Houston Center
06:44AM 27.2842 -97.5994 29° Northeast 385 443 20,600 1,140 Climbing Houston Center
06:45AM 27.3808 -97.5400 29° Northeast 395 455 21,700 840 Climbing Houston Center
06:46AM 27.4808 -97.4772 29° Northeast 411 473 22,400 600 Climbing Houston Center
06:47AM 27.5861 -97.4122 29° Northeast 428 493 22,900 240 Climbing Houston Center
06:48AM 27.6919 -97.3450 29° Northeast 433 498 23,000  Climbing Houston Center
06:49AM 27.8042 -97.2728 30° Northeast 445 512 23,000  Level Houston Center
06:50AM 27.9222 -97.1994 29° Northeast 461 531 23,000 -60 Level Houston Center
06:51AM 28.0436 -97.1278 28° Northeast 480 552 22,900  Descending Houston Center
06:52AM 28.1603 -97.0567 28° Northeast 479 551 23,000  Climbing Houston Center
06:53AM 28.2761 -96.9808 30° Northeast 481 554 23,000  Level Houston Center
06:54AM 28.3925 -96.9064 29° Northeast 481 554 23,000  Level Houston Center
06:55AM 28.5094 -96.8347 28° Northeast 481 554 23,000  Level Houston Center
06:56AM 28.6247 -96.7617 29° Northeast 478 550 23,000  Level Houston Center
06:57AM 28.7408 -96.6847 30° Northeast 480 552 23,000  Level Houston Center
06:58AM 28.8561 -96.6119 29° Northeast 478 550 23,000 -720 Level Houston Center
06:59AM 28.9947 -96.5236 29° Northeast 478 550 21,600 -1,500 Descending Houston Center
07:00AM 29.1050 -96.4525 29° Northeast 466 536 20,100 -1,500 Descending Houston Center
07:00AM 29.1478 -96.4239 30° Northeast 456 525 19,500 -1,440 Descending Houston Center
07:01AM 29.2014 -96.3892 29° Northeast 453 521 18,800 -2,100 Descending Houston Center
07:02AM 29.3089 -96.3200 29° Northeast 434 499 16,400 -2,340 Descending Houston Center
07:03AM 29.3978 -96.2286 42° Northeast 425 489 14,100 -2,160 Descending Houston Center
07:04AM 29.4722 -96.1172 52° Northeast 409 471 12,100 -1,680 Descending Houston Center
07:05AM 29.5392 -96.0186 52° Northeast 392 451 10,700 -1,080 Descending Houston Center
07:06AM 29.6019 -95.9203 54° Northeast 377 434 10,000 -360 Descending Houston Center
07:07AM 29.6647 -95.8242 53° Northeast 376 433 10,000  Level Houston Center
07:08AM 29.7294 -95.7253 53° Northeast 372 428 10,000 -480 Level Houston Center
07:09AM 29.7814 -95.6469 53° Northeast 289 333 9,100 -1,380 Descending Houston Center
07:10AM 29.8292 -95.5714 54° Northeast 289 333 7,300 -1,500 Descending Houston Center
07:11AM 29.8750 -95.4986 54° Northeast 280 322 6,100 -720 Descending Houston Center
07:12AM 29.8956 -95.4239 72° East 277 319 6,000 -60 Descending Houston Center
07:13AM 29.8958 -95.3347 90° East 279 321 6,000  Level Houston Center
07:14AM 29.8969 -95.2344 89° East 277 319 6,000 -540 Level Houston Center
07:15AM 29.8967 -95.1567 90° East 243 280 4,900 -1,380 Descending Houston Center
07:16AM 29.8961 -95.0889 91° East 226 260 3,400 -1,320 Descending Houston Center
07:17AM 29.9308 -95.0339 54° Northeast 229 264 2,400 -660 Descending Houston Center
07:18AM 29.9864 -95.0556 341° North 226 260 2,100 -240 Descending Houston Center
07:19AM 29.9800 -95.1097 262° West 181 208 2,000  Descending Houston Center
07:20AM 29.9781 -95.1800 268° West 188 216 2,100 60 Climbing Houston Center